EW9427 Weather Reports


Display with metric or nautical units.
time (UTC)temp
F
wind
direction
speed
MPH
gust
MPH
rain 1hr
in
rain 24hr
in
rain mn
in
humidity
%
barometer
mb
20260831051523 53 281 2.0 7.0 0.00 0.00 0.00 65 1013.3
20260831050021 53 285 2.0 7.0 0.00 0.00 0.00 66 1013.2
20260831044521 53 246 2.0 7.0 0.00 0.00 0.00 67 1013.3
20260831043019 52 298 1.0 6.0 0.00 0.00 0.00 68 1013.3
20260831041518 53 267 3.0 12.0 0.00 0.00 0.00 66 1013.3
20260831040017 54 302 8.0 17.0 0.00 0.00 0.00 64 1013.2
20260831034517 57 283 12.0 20.0 0.00 0.00 0.00 58 1013.2
20260831033028 59 271 4.0 15.0 0.00 0.00 0.00 51 1013.0
20260831031517 59 276 5.0 13.0 0.00 0.00 0.00 50 1013.0
20260831030015 59 298 4.0 15.0 0.00 0.00 0.00 49 1012.8
20260831024517 59 294 4.0 11.0 0.00 0.00 0.00 50 1012.7
20260831023025 59 261 7.0 15.0 0.00 0.00 0.00 49 1012.5
20260831021520 59 272 7.0 19.0 0.00 0.00 0.00 49 1012.2
20260831020018 60 247 5.0 16.0 0.00 0.00 0.00 48 1012.3
20260831014512 60 299 6.0 19.0 0.00 0.00 0.00 48 1012.2
20260831013012 60 238 5.0 20.0 0.00 0.00 0.00 48 1012.0
20260831011510 61 316 5.0 19.0 0.00 0.00 0.00 48 1012.0
20260831010010 62 252 8.0 20.0 0.00 0.00 0.00 47 1012.0
20260831004510 60 255 5.0 19.0 0.00 0.00 0.00 50 1012.1
20260831003010 60 314 10.0 17.0 0.00 0.00 0.00 55 1012.3
20260831001508 60 286 11.0 17.0 0.00 0.00 0.00 52 1012.3
20260831000008 60 288 9.0 18.0 0.00 0.00 0.00 52 1012.1
20260830234511 62 267 7.0 24.0 0.00 0.05 0.00 45 1012.1
20260830233006 62 288 8.0 17.0 0.00 0.05 0.00 45 1012.0
20260830231511 65 261 7.0 20.0 0.00 0.05 0.00 43 1011.9
20260830230006 65 272 7.0 22.0 0.00 0.05 0.00 44 1011.8
20260830224503 66 292 6.0 15.0 0.00 0.07 0.00 42 1011.8
20260830223001 65 344 7.0 18.0 0.00 0.07 0.00 42 1011.9
20260830221602 64 267 11.0 27.0 0.00 0.07 0.00 43 1012.0
20260830220111 63 223 7.0 16.0 0.00 0.07 0.00 44 1012.1
20260830214559 62 219 7.0 21.0 0.00 0.07 0.00 45 1012.3
20260830213119 63 229 12.0 20.0 0.00 0.07 0.00 45 1012.4
20260830211600 62 323 8.0 21.0 0.00 0.07 0.00 45 1012.5
20260830204601 64 240 10.0 22.0 0.00 0.07 0.00 43 1012.5
20260830203058 64 242 7.0 22.0 0.00 0.07 0.00 44 1012.5
20260830201600 63 281 17.0 30.0 0.00 0.07 0.00 43 1012.5
20260830200053 63 291 11.0 25.0 0.00 0.07 0.00 44 1012.5
20260830194553 63 227 10.0 21.0 0.00 0.07 0.00 45 1012.5
20260830193052 66 265 10.0 25.0 0.00 0.07 0.00 41 1012.3
20260830191554 66 261 9.0 22.0 0.00 0.07 0.00 43 1012.3
20260830190150 64 242 8.0 20.0 0.00 0.07 0.00 45 1012.3
20260830184550 63 215 6.0 23.0 0.00 0.07 0.00 44 1012.2
20260830183050 65 260 10.0 25.0 0.00 0.07 0.00 42 1012.2
20260830181545 64 259 10.0 22.0 0.00 0.07 0.00 43 1012.3
20260830180043 65 234 10.0 18.0 0.00 0.07 0.00 41 1012.4
20260830174542 64 242 13.0 24.0 0.00 0.07 0.00 42 1012.3
20260830173040 64 209 6.0 24.0 0.00 0.07 0.00 44 1012.3
20260830171538 64 271 4.0 14.0 0.00 0.07 0.00 45 1012.5
20260830170033 62 210 10.0 22.0 0.00 0.07 0.00 50 1012.7
20260830164535 61 252 9.0 16.0 0.00 0.07 0.00 50 1012.8
20260830163028 61 242 12.0 16.0 0.00 0.07 0.00 50 1012.7
20260830161529 61 228 8.0 14.0 0.00 0.07 0.00 52 1012.7
20260830160020 60 240 7.0 14.0 0.00 0.07 0.00 53 1012.8
20260830154516 59 134 1.0 4.0 0.00 0.07 0.00 56 1013.2
20260830153012 58 134 0.0 2.0 0.00 0.07 0.00 55 1013.0
20260830151507 57 74 1.0 5.0 0.00 0.07 0.00 58 1013.3
20260830150003 55 35 7.0 11.0 0.00 0.07 0.00 65 1013.2
20260830144618 53 10 2.0 4.0 0.00 0.07 0.00 69 1013.3
20260830143106 51 292 2.0 5.0 0.00 0.07 0.00 71 1013.0
20260830141554 51 304 3.0 5.0 0.00 0.07 0.00 73 1013.1
20260830140052 51 306 3.0 5.0 0.00 0.07 0.00 73 1013.3
20260830134551 52 306 2.0 5.0 0.00 0.07 0.00 73 1013.4
20260830133051 52 308 3.0 7.0 0.00 0.07 0.00 74 1013.4
20260830131542 53 291 3.0 7.0 0.00 0.07 0.00 73 1013.3
20260830130052 53 295 3.0 8.0 0.00 0.07 0.00 71 1013.2
20260830124535 54 281 6.0 10.0 0.00 0.07 0.00 73 1013.0
20260830123034 54 294 8.0 12.0 0.00 0.07 0.00 78 1012.7
20260830121531 55 277 8.0 11.0 0.00 0.07 0.00 81 1012.7
20260830120030 55 263 7.0 11.0 0.00 0.07 0.00 82 1012.6
20260830114602 54 290 3.0 7.0 0.00 0.07 0.00 84 1012.8
20260830113029 55 222 3.0 7.0 0.00 0.07 0.00 84 1013.2
20260830111528 55 295 6.0 10.0 0.00 0.07 0.00 83 1012.7
20260830110028 54 291 6.0 10.0 0.00 0.07 0.00 83 1013.0
20260830104528 55 286 6.0 9.0 0.00 0.07 0.00 82 1012.7
20260830103027 56 294 4.0 7.0 0.00 0.07 0.00 79 1012.6
20260830101525 56 5 3.0 6.0 0.00 0.07 0.00 79 1012.5
20260830100024 56 244 1.0 9.0 0.00 0.07 0.00 76 1012.4
20260830094522 55 297 2.0 9.0 0.00 0.07 0.00 82 1012.6
20260830093021 55 251 0.0 3.0 0.00 0.07 0.00 85 1012.4
20260830091530 55 252 0.0 7.0 0.00 0.07 0.00 85 1012.2
20260830090022 55 235 7.0 14.0 0.00 0.07 0.00 85 1012.4
20260830084520 56 206 9.0 17.0 0.00 0.07 0.00 84 1013.0
20260830083021 56 209 9.0 19.0 0.00 0.07 0.00 81 1013.1
20260830081517 57 220 16.0 23.0 0.00 0.07 0.00 79 1013.4
20260830080015 57 229 15.0 21.0 0.00 0.07 0.00 81 1013.3
20260830074513 57 220 17.0 26.0 0.00 0.07 0.00 85 1013.4
20260830073008 57 244 12.0 18.0 0.00 0.07 0.00 88 1013.0
20260830071504 56 225 3.0 7.0 0.00 0.07 0.00 89 1012.7
20260830070004 55 244 1.0 8.0 0.00 0.07 0.00 89 1012.5
20260830064601 55 242 0.0 4.0 0.00 0.07 0.00 89 1012.5
20260830063121 55 293 2.0 5.0 0.00 0.07 0.00 89 1012.4
20260830061555 54 292 3.0 6.0 0.00 0.07 0.00 89 1012.4
20260830060053 54 138 0.0 2.0 0.00 0.07 0.00 87 1012.1
20260830054552 55 137 1.0 3.0 0.00 0.07 0.07 87 1012.0
20260830053054 55 74 1.0 3.0 0.00 0.07 0.07 87 1011.9